Weather History for Cape Girardeau, MO

Change the Weather History Date:

Monday, November 12, 2012

  Actual Average Record
Temperature  
Mean Temperature 41 °F 48 °F  
Max Temperature 51 °F 59 °F 78 °F (2010)
Min Temperature 31 °F 38 °F 17 °F (1976)
Degree Days  
Heating Degree Days 24 17  
Month to date heating degree days 194 175  
Since 1 July heating degree days 539 478  
Cooling Degree Days 0 0  
Month to date cooling degree days 0 0  
Year to date cooling degree days 1784 1451  
Moisture  
Dew Point 34 °F    
Average Humidity 66    
Maximum Humidity 96    
Minimum Humidity 36    
Precipitation  
Precipitation 0.37 in 0.14 in 1.28 in (1992)
Month to date precipitation 1.24 1.62  
Year to date precipitation 25.20 39.74  
Sea Level Pressure  
Sea Level Pressure 30.26 in    
Wind  
Wind Speed 8 mph (NW)    
Max Wind Speed 22 mph    
Max Gust Speed 28 mph    
Visibility 9 miles    
Events Rain    
T = Trace of Precipitation, MM = Missing Value Source: NWS Daily Summary

Daily Weather History Graph

Daily Weather History Graph

Search for Another Location

Airport:

Trip Planner

Search our weather history database for the weather conditions in past years. The results will help you decide how hot, cold, wet, or windy it might be!

Date:

Astronomy

Nov. 12, 2012 Rise Set
Actual Time 6:34 AM CST 4:49 PM CST
Civil Twilight 6:07 AM CST 5:17 PM CST
Nautical Twilight 5:35 AM CST 5:48 PM CST
Astronomical Twilight 5:04 AM CST 6:19 PM CST
Moon 5:01 AM CST (11/12) 3:54 PM CST (11/12)
Length of Visible Light 11h 10m
Length of Day
10h 15m
Waning Crescent, 2% of the Moon is Illuminated
Nov 12
Waning Crescent
Nov 13
New
Nov 20
First Quarter
Nov 28
Full
Dec 6
Last Quarter

Hourly Weather History & Observations

Time (CST) Temp. Windchill Dew Point Humidity Pressure Visibility Wind Dir Wind Speed Gust Speed Precip Events Conditions
12:24 AM 51.8 °F - 50.0 °F 94% 30.04 in 4.0 mi West 3.5 mph - 0.07 in Rain Rain
12:38 AM 51.8 °F - 50.0 °F 94% 30.07 in 4.0 mi West 10.4 mph - 0.10 in Rain Rain
12:45 AM 51.8 °F - 48.2 °F 88% 30.08 in 6.0 mi West 9.2 mph - 0.11 in Rain Rain
12:53 AM 51.1 °F - 48.9 °F 92% 30.08 in 6.0 mi West 10.4 mph - 0.13 in Rain Rain
1:16 AM 51.8 °F - 48.2 °F 88% 30.07 in 2.0 mi WNW 12.7 mph - 0.17 in Rain Heavy Rain
1:27 AM 48.2 °F - 46.4 °F 93% 30.10 in 5.0 mi NW 18.4 mph 25.3 mph 0.20 in Rain Rain
1:36 AM 46.4 °F 40.1 °F 44.6 °F 93% 30.11 in 6.0 mi NW 15.0 mph - 0.22 in Rain Rain
1:53 AM 46.0 °F 39.3 °F 43.0 °F 89% 30.10 in 8.0 mi NNW 16.1 mph - 0.23 in Rain Light Rain
2:11 AM 44.6 °F 38.8 °F 42.8 °F 93% 30.10 in 8.0 mi NNW 11.5 mph - 0.01 in Rain Light Rain
2:19 AM 44.6 °F 39.7 °F 42.8 °F 93% 30.10 in 10.0 mi NNW 9.2 mph - 0.01 in Rain Light Rain
2:32 AM 44.6 °F 39.2 °F 42.8 °F 93% 30.14 in 10.0 mi NW 10.4 mph - 0.01 in Rain Light Rain
2:53 AM 44.1 °F 37.1 °F 39.9 °F 85% 30.13 in 8.0 mi NW 15.0 mph - 0.02 in Rain Light Rain
3:53 AM 41.0 °F 32.8 °F 37.0 °F 86% 30.17 in 10.0 mi NNW 16.1 mph - 0.00 in   Overcast
4:25 AM 39.2 °F 31.2 °F 35.6 °F 87% 30.18 in 10.0 mi NW 13.8 mph 20.7 mph N/A   Overcast
4:43 AM 39.2 °F 31.6 °F 35.6 °F 87% 30.21 in 10.0 mi NW 12.7 mph - 0.00 in Rain Light Rain
4:53 AM 39.0 °F 31.4 °F 35.1 °F 86% 30.21 in 10.0 mi NW 12.7 mph - 0.00 in   Overcast
5:40 AM 37.4 °F 27.8 °F 32.0 °F 81% 30.25 in 10.0 mi NW 17.3 mph - N/A   Overcast
5:53 AM 37.0 °F 29.3 °F 30.9 °F 79% 30.26 in 10.0 mi NW 11.5 mph 20.7 mph N/A   Mostly Cloudy
6:53 AM 36.0 °F 28.5 °F 28.9 °F 76% 30.31 in 10.0 mi NW 10.4 mph - N/A   Mostly Cloudy
7:12 AM 33.8 °F 24.8 °F 24.8 °F 70% 30.32 in 10.0 mi NW 12.7 mph - N/A   Partly Cloudy
7:53 AM 35.1 °F 24.8 °F 24.1 °F 64% 30.34 in 10.0 mi NW 17.3 mph 21.9 mph N/A   Clear
8:53 AM 36.0 °F 26.7 °F 24.1 °F 62% 30.36 in 10.0 mi NNW 15.0 mph - N/A   Clear
9:53 AM 39.0 °F 31.8 °F 24.1 °F 55% 30.39 in 10.0 mi NNW 11.5 mph 20.7 mph N/A   Clear
11:53 AM 45.0 °F 40.1 °F 24.1 °F 44% 30.39 in 10.0 mi WNW 9.2 mph - N/A   Clear
12:53 PM 46.9 °F - 21.9 °F 37% 30.37 in 10.0 mi NNW 9.2 mph - N/A   Clear
1:53 PM 48.0 °F - 23.0 °F 37% 30.36 in 10.0 mi NNW 10.4 mph - N/A   Clear
2:53 PM 48.9 °F - 23.0 °F 36% 30.35 in 10.0 mi WNW 8.1 mph - N/A   Clear
3:53 PM 48.0 °F - 26.1 °F 42% 30.37 in 10.0 mi West 8.1 mph - N/A   Clear
4:53 PM 44.1 °F 41.5 °F 26.1 °F 49% 30.39 in 10.0 mi South 4.6 mph - N/A   Clear
5:53 PM 39.9 °F - 26.1 °F 58% 30.41 in 10.0 mi Calm Calm - N/A   Clear
6:53 PM 35.1 °F - 30.0 °F 82% 30.43 in 10.0 mi Calm Calm - N/A   Clear
7:53 PM 36.0 °F - 28.9 °F 76% 30.44 in 10.0 mi Calm Calm - N/A   Clear
8:53 PM 35.1 °F - 30.0 °F 82% 30.46 in 10.0 mi Calm Calm - N/A   Clear
9:53 PM 33.1 °F - 30.0 °F 89% 30.47 in 10.0 mi Calm Calm - N/A   Clear
10:53 PM 32.0 °F - 28.9 °F 88% 30.48 in 10.0 mi Calm Calm - N/A   Clear
11:53 PM 32.0 °F - 28.0 °F 85% 30.48 in 10.0 mi Calm Calm - N/A   Clear